PST,Max TemperatureF,Mean TemperatureF,Min TemperatureF,Max Dew PointF,MeanDew PointF,Min DewpointF,Max Humidity, Mean Humidity, Min Humidity, Max Sea Level PressureIn, Mean Sea Level PressureIn, Min Sea Level PressureIn, Max VisibilityMiles, Mean VisibilityMiles, Min VisibilityMiles, Max Wind SpeedMPH, Mean Wind SpeedMPH, Max Gust SpeedMPH,PrecipitationIn, CloudCover, Events, WindDirDegrees
2012-11-1,61,51,41,47,44,42,100,76,51,30.01,29.83,29.76,10,5,0,16,5,20,0.01,5,Fog-Rain,344
2012-11-2,52,46,40,45,42,39,100,89,77,30.12,30.07,30.02,10,7,1,12,7,14,0.00,5,,359
2012-11-3,54,50,46,49,46,42,93,87,80,30.15,30.06,30.02,10,9,6,14,4,17,0.04,7,Rain,216
2012-11-4,58,52,46,50,47,45,93,83,72,30.28,30.24,30.17,10,9,6,9,4,12,0.00,3,,8
2012-11-5,65,53,41,50,43,36,100,67,34,30.25,30.19,30.14,10,5,0,14,5,17,0.00,0,Fog,339
2012-11-6,58,49,40,46,42,37,96,79,62,30.17,30.02,29.87,10,10,10,9,5,10,0.00,2,,5
2012-11-7,55,44,33,38,28,24,92,61,30,30.02,29.99,29.89,10,9,4,23,9,26,0.00,0,,292
2012-11-8,49,41,32,33,29,26,89,67,45,29.94,29.81,29.74,10,10,6,21,10,24,0.01,6,Rain,354
2012-11-9,44,36,28,32,29,26,92,73,53,29.94,29.86,29.78,10,10,10,14,5,18,0.01,5,,8
2012-11-10,38,30,22,29,26,19,85,75,64,30.24,30.06,29.91,10,10,10,10,4,12,T,6,,359
2012-11-11,34,27,20,31,26,18,100,91,81,30.35,30.28,30.21,10,4,0,7,4,8,0.23,7,Fog-Snow,16
2012-11-12,36,34,31,32,30,28,92,87,82,30.30,30.23,30.19,10,7,1,9,4,10,0.25,7,Snow,332
2012-11-13,35,34,32,32,32,30,96,89,82,30.31,30.24,30.18,10,7,0,6,1,7,0.00,8,Fog,352
2012-11-14,36,35,33,33,32,30,96,89,82,30.39,30.30,30.18,10,9,6,10,5,12,0.02,8,,3
2012-11-15,41,38,35,36,35,33,92,86,79,30.37,30.18,30.01,10,10,4,13,9,15,0.00,8,,343
2012-11-16,42,40,37,37,36,34,100,88,76,30.02,29.98,29.92,10,7,1,9,2,10,0.00,8,,5
2012-11-17,47,43,38,41,39,34,100,88,76,29.91,29.68,29.55,10,8,4,12,5,15,0.05,8,Rain,324
2012-11-18,47,39,31,40,35,30,100,83,65,29.88,29.81,29.73,10,10,7,29,7,37,0.09,4,Rain,172
2012-11-19,57,50,43,46,41,39,89,72,55,29.75,29.65,29.54,10,10,8,24,13,32,0.10,8,Rain,181
2012-11-20,53,45,37,46,42,35,96,84,71,29.74,29.68,29.62,10,10,10,23,11,29,0.01,5,Rain,193
2012-11-21,51,42,32,38,33,28,100,75,50,30.21,29.85,29.62,10,10,3,28,10,32,0.06,2,Rain,229
2012-11-22,45,37,29,33,31,26,92,79,65,30.47,30.39,30.24,10,10,10,13,6,16,0.00,2,,358
2012-11-23,38,37,36,36,34,32,92,87,82,30.35,30.16,30.04,10,10,7,8,2,9,0.12,7,Rain,25
2012-11-24,43,36,28,37,33,26,96,83,70,30.21,30.14,30.04,10,7,1,13,4,14,0.00,1,,349
2012-11-25,36,29,21,32,26,20,100,91,82,30.38,30.28,30.15,10,7,0,9,3,10,0.00,2,Fog,114
2012-11-26,38,32,26,31,29,25,100,85,70,30.37,30.29,30.22,10,7,0,13,8,15,0.00,7,Fog,354
2012-11-27,38,32,26,31,28,25,100,88,76,30.28,30.19,30.10,10,6,0,8,2,9,0.00,5,Fog,36
2012-11-28,39,31,22,34,27,19,100,91,82,30.13,29.97,29.80,10,6,0,15,2,17,0.06,5,Fog-Rain,98
2012-11-29,40,36,32,36,33,30,96,91,85,29.91,29.79,29.62,10,6,0,14,5,16,0.03,8,Fog-Rain,359
2012-11-30,42,36,30,39,35,28,100,93,85,29.59,29.55,29.51,10,6,0,10,5,12,T,5,Fog-Rain,319